Location: Herm
(49.4830°N, 2.4500°W)
Time: 09:02:44
(UTC+00:00)

NOAA 15 - Pass Details

Date: 31 October 2021
Orbit: 797 x 812 km, 98.7° (Epoch: 27 November)

Event Time Altitude Azimuth Distance (km) Brightness Sun altitude
Rises 20:07:58 0° 204° (SSW) 3,321 7.9 -32.5°
Reaches altitude 10° 20:10:49 10° 219° (SW) 2,396 7.3 -33.0°
Maximum altitude 20:14:52 22° 269° (W) 1,715 6.8 -33.6°
Drops below altitude 10° 20:18:58 10° 319° (NW) 2,411 7.7 -34.2°
Sets 20:21:51 0° 335° (NNW) 3,348 8.4 -34.6°
